Simultaneous Nadir Overpasses (SNOs) Predictions

Prediction of SNOs between LANDSAT-8 and NPP Satellite Orbit:

Table of predicted SNOs for the next 14.0 days since TLE Epoch: 6/25/2016
Index Date (LANDSAT-8) Time (LANDSAT-8) Lat,Lon (LANDSAT-8) SZA (LANDSAT-8 ) Date (NPP) Time (NPP) Lat,Lon (NPP) SZA (NPP ) Distance(km) Time Diff (sec)
1 06/25/2016 13:52:13 70.25, -31.42 46.84 06/25/2016 13:51:06 70.24, -31.42 46.84 1.49 67
2 06/25/2016 14:41:43 -70.13, 136.05 133.27 06/25/2016 14:41:48 -70.16, 136.02 133.25 2.66 5
3 06/25/2016 15:31:16 69.70, -56.90 46.32 06/25/2016 15:32:26 69.71, -56.01 46.30 34.58 70
4 06/28/2016 06:08:44 70.23, 84.43 46.94 06/28/2016 06:08:00 70.21, 84.38 46.93 2.39 44
5 06/28/2016 06:58:14 -70.12,-108.09 133.17 06/28/2016 06:58:42 -70.13,-108.17 133.16 3.19 28
6 06/30/2016 22:25:15 70.15,-159.81 47.02 06/30/2016 22:24:52 70.14,-159.74 47.02 2.62 23
7 06/30/2016 23:14:45 -70.04, 7.67 133.08 06/30/2016 23:15:34 -70.05, 7.72 133.07 2.29 49
8 07/03/2016 13:52:18 -70.28, 148.62 132.65 07/03/2016 13:51:04 -70.34, 148.41 132.56 10.57 74
9 07/03/2016 14:41:46 70.12, -43.97 47.20 07/03/2016 14:41:46 70.13, -43.95 47.22 2.08 0
10 07/03/2016 15:31:16 -70.01, 123.51 132.90 07/03/2016 15:32:28 -70.04, 123.52 132.88 2.71 72
11 07/06/2016 06:08:49 -70.25, -95.55 132.42 07/06/2016 06:07:56 -70.23, -95.63 132.43 3.59 53
12 07/06/2016 06:58:17 70.08, 71.85 47.43 07/06/2016 06:58:39 70.07, 71.92 47.41 2.91 22
13 07/06/2016 07:48:00 -69.26,-121.63
